Simultaneous Nadir Overpasses (SNOs) Predictions

Prediction of SNOs between GOES-16 and METOP-B Satellite Orbit:

Table of predicted SNOs for the next 14.0 days since TLE Epoch: 3/4/2023
Index Date Time (GOES-16) GOES-16 Lat,Lon METOP-B Lat,Lon Distance(km) Time Diff (sec)
1 03/04/2023 14:14:25 0.04, -75.20 -0.82, -71.50 422.36 80
2 03/06/2023 02:36:05 -0.04, -75.19 -0.24, -76.09 101.55 80
3 03/07/2023 02:12:45 -0.04, -75.20 0.88, -71.09 468.34 80
4 03/08/2023 14:34:16 0.05, -75.23 0.13, -75.65 48.28 80
5 03/11/2023 02:29:56 -0.05, -75.25 -0.04, -75.25 0.87 80
6 03/13/2023 14:28:07 0.04, -75.29 -0.03, -74.81 53.56 80
7 03/15/2023 02:49:46 -0.04, -75.30 -0.99, -79.41 469.00 80
8 03/16/2023 02:26:27 -0.04, -75.31 0.16, -74.42 101.48 80
9 03/17/2023 14:45:18 0.04, -75.34 0.83, -78.98 414.72 80
